| time (UTC) | temp C | wind direction | speed KPH | gust KPH | rain 1hr cm | rain 24hr cm | rain mn cm | humidity % | barometer mb |
| 20260504033412 | 6 | 341 | 0.0 | 0.0 | 0.00 | 0.00 | 0.00 | 77 | 1017.2 |
| 20260504032908 | 6 | 341 | 0.0 | 0.0 | 0.00 | 0.00 | 0.00 | 73 | 1016.9 |
| 20260504032405 | 6 | 342 | 0.0 | 1.6 | 0.00 | 0.00 | 0.00 | 77 | 1016.9 |
| 20260504031901 | 7 | 343 | 1.6 | 1.6 | 0.00 | 0.00 | 0.00 | 70 | 1017.0 |
| 20260504031359 | 7 | 343 | 1.6 | 1.6 | 0.00 | 0.00 | 0.00 | 72 | 1017.0 |
| 20260504030855 | 7 | 248 | 1.6 | 3.2 | 0.00 | 0.00 | 0.00 | 53 | 1016.9 |
| 20260504030353 | 7 | 266 | 0.0 | 0.0 | 0.00 | 0.00 | 0.00 | 64 | 1017.1 |
| 20260504025848 | 7 | 266 | 0.0 | 0.0 | 0.00 | 0.00 | 0.00 | 64 | 1017.2 |
| 20260504025346 | 7 | 266 | 0.0 | 0.0 | 0.00 | 0.00 | 0.00 | 64 | 1017.0 |
| 20260504024842 | 7 | 266 | 0.0 | 0.0 | 0.00 | 0.00 | 0.00 | 63 | 1016.8 |
| 20260504024338 | 7 | 266 | 1.6 | 1.6 | 0.00 | 0.00 | 0.00 | 62 | 1017.1 |
| 20260504023836 | 7 | 266 | 1.6 | 1.6 | 0.00 | 0.00 | 0.00 | 67 | 1017.0 |
| 20260504023333 | 7 | 266 | 0.0 | 0.0 | 0.00 | 0.00 | 0.00 | 67 | 1017.0 |
| 20260504022828 | 7 | 266 | 0.0 | 1.6 | 0.00 | 0.00 | 0.00 | 60 | 1017.2 |
| 20260504022325 | 7 | 273 | 3.2 | 4.8 | 0.00 | 0.00 | 0.00 | 60 | 1017.1 |
| 20260504021822 | 7 | 252 | 1.6 | 3.2 | 0.00 | 0.00 | 0.00 | 67 | 1017.2 |
| 20260504021320 | 7 | 279 | 0.0 | 1.6 | 0.00 | 0.00 | 0.00 | 64 | 1017.3 |
| 20260504020816 | 7 | 277 | 1.6 | 1.6 | 0.00 | 0.00 | 0.00 | 67 | 1017.0 |
| 20260504020313 | 7 | 251 | 0.0 | 0.0 | 0.00 | 0.00 | 0.00 | 67 | 1017.0 |
| 20260504015809 | 7 | 274 | 0.0 | 0.0 | 0.00 | 0.00 | 0.00 | 63 | 1017.1 |
| 20260504015305 | 7 | 274 | 1.6 | 1.6 | 0.00 | 0.00 | 0.00 | 59 | 1017.0 |
| 20260504014801 | 7 | 256 | 0.0 | 0.0 | 0.00 | 0.00 | 0.00 | 69 | 1016.8 |
| 20260504014257 | 7 | 104 | 0.0 | 1.6 | 0.00 | 0.00 | 0.00 | 62 | 1017.0 |
| 20260504013755 | 7 | 265 | 1.6 | 1.6 | 0.00 | 0.00 | 0.00 | 56 | 1017.2 |
| 20260504013253 | 7 | 266 | 0.0 | 0.0 | 0.00 | 0.00 | 0.00 | 63 | 1016.9 |
| 20260504012749 | 7 | 266 | 0.0 | 0.0 | 0.00 | 0.00 | 0.00 | 62 | 1016.7 |
| 20260504012247 | 7 | 266 | 0.0 | 0.0 | 0.00 | 0.00 | 0.00 | 59 | 1016.7 |
| 20260504011744 | 7 | 266 | 0.0 | 1.6 | 0.00 | 0.00 | 0.00 | 61 | 1016.7 |
| 20260504011240 | 7 | 266 | 0.0 | 0.0 | 0.00 | 0.00 | 0.00 | 61 | 1016.8 |
| 20260504010737 | 8 | 248 | 3.2 | 3.2 | 0.00 | 0.00 | 0.00 | 51 | 1016.8 |
| 20260504010232 | 8 | 264 | 3.2 | 4.8 | 0.00 | 0.00 | 0.00 | 52 | 1016.5 |
| 20260504005729 | 8 | 269 | 3.2 | 4.8 | 0.00 | 0.00 | 0.00 | 53 | 1016.5 |
| 20260504005226 | 8 | 260 | 3.2 | 4.8 | 0.00 | 0.00 | 0.00 | 55 | 1016.5 |
| 20260504004724 | 8 | 259 | 3.2 | 4.8 | 0.00 | 0.00 | 0.00 | 53 | 1016.2 |
| 20260504004221 | 8 | 262 | 4.8 | 4.8 | 0.00 | 0.00 | 0.00 | 47 | 1016.3 |
| 20260504003717 | 7 | 271 | 4.8 | 4.8 | 0.00 | 0.00 | 0.00 | 54 | 1016.3 |
| 20260504003215 | 8 | 253 | 4.8 | 4.8 | 0.00 | 0.00 | 0.00 | 52 | 1016.1 |
| 20260504002711 | 8 | 267 | 3.2 | 4.8 | 0.00 | 0.00 | 0.00 | 51 | 1016.2 |
| 20260504002208 | 8 | 266 | 4.8 | 4.8 | 0.00 | 0.00 | 0.00 | 51 | 1016.2 |
| 20260504001706 | 8 | 257 | 4.8 | 4.8 | 0.00 | 0.00 | 0.00 | 51 | 1016.1 |
| 20260504001202 | 8 | 262 | 3.2 | 4.8 | 0.00 | 0.00 | 0.00 | 48 | 1016.2 |
| 20260504000659 | 8 | 264 | 4.8 | 4.8 | 0.00 | 0.00 | 0.00 | 48 | 1016.6 |
| 20260504000156 | 9 | 258 | 4.8 | 4.8 | 0.00 | 0.00 | 0.00 | 50 | 1016.2 |
| 20260503235654 | 10 | 275 | 1.6 | 4.8 | 0.00 | 0.00 | 0.00 | 43 | 1016.3 |
| 20260503235151 | 11 | 280 | 3.2 | 4.8 | 0.00 | 0.00 | 0.00 | 39 | 1016.1 |
| 20260503234649 | 11 | 275 | 4.8 | 6.4 | 0.00 | 0.00 | 0.00 | 38 | 1016.1 |
| 20260503234147 | 11 | 300 | 4.8 | 6.4 | 0.00 | 0.00 | 0.00 | 37 | 1016.2 |
| 20260503233643 | 11 | 282 | 3.2 | 4.8 | 0.00 | 0.00 | 0.00 | 39 | 1016.3 |
| 20260503233139 | 11 | 284 | 1.6 | 4.8 | 0.00 | 0.00 | 0.00 | 38 | 1016.3 |
| 20260503232636 | 11 | 265 | 1.6 | 6.4 | 0.00 | 0.00 | 0.00 | 36 | 1016.1 |
| 20260503232134 | 11 | 356 | 3.2 | 3.2 | 0.00 | 0.00 | 0.00 | 37 | 1016.0 |
| 20260503231632 | 11 | 289 | 0.0 | 1.6 | 0.00 | 0.00 | 0.00 | 43 | 1016.2 |
| 20260503231128 | 12 | 298 | 6.4 | 6.4 | 0.00 | 0.00 | 0.00 | 42 | 1016.2 |
| 20260503230625 | 12 | 248 | 1.6 | 4.8 | 0.00 | 0.00 | 0.00 | 31 | 1016.3 |
| 20260503230122 | 13 | 248 | 6.4 | 12.9 | 0.00 | 0.00 | 0.00 | 30 | 1016.2 |
| 20260503225620 | 13 | 311 | 3.2 | 9.7 | 0.00 | 0.00 | 0.00 | 33 | 1016.3 |
| 20260503225119 | 14 | 309 | 4.8 | 4.8 | 0.00 | 0.00 | 0.00 | 32 | 1016.5 |
| 20260503224617 | 13 | 279 | 3.2 | 9.7 | 0.00 | 0.00 | 0.00 | 28 | 1016.3 |
| 20260503224114 | 13 | 273 | 9.7 | 12.9 | 0.00 | 0.00 | 0.00 | 31 | 1016.2 |
| 20260503223612 | 13 | 296 | 6.4 | 11.3 | 0.00 | 0.00 | 0.00 | 31 | 1016.3 |
| 20260503223108 | 13 | 18 | 4.8 | 4.8 | 0.00 | 0.00 | 0.00 | 37 | 1015.9 |
| 20260503222606 | 13 | 289 | 4.8 | 9.7 | 0.00 | 0.00 | 0.00 | 32 | 1016.2 |
| 20260503222103 | 13 | 255 | 1.6 | 6.4 | 0.00 | 0.00 | 0.00 | 33 | 1016.2 |
| 20260503221601 | 13 | 326 | 4.8 | 11.3 | 0.00 | 0.00 | 0.00 | 36 | 1016.5 |
| 20260503221058 | 14 | 272 | 3.2 | 9.7 | 0.00 | 0.00 | 0.00 | 30 | 1016.3 |
| 20260503220554 | 14 | 243 | 6.4 | 9.7 | 0.00 | 0.00 | 0.00 | 28 | 1016.3 |
| 20260503220052 | 13 | 33 | 6.4 | 9.7 | 0.00 | 0.00 | 0.00 | 32 | 1016.3 |
| 20260503215548 | 13 | 19 | 9.7 | 11.3 | 0.00 | 0.00 | 0.00 | 33 | 1016.3 |
| 20260503215045 | 13 | 289 | 4.8 | 6.4 | 0.00 | 0.00 | 0.00 | 33 | 1016.3 |
| 20260503214544 | 13 | 354 | 0.0 | 6.4 | 0.00 | 0.00 | 0.00 | 28 | 1016.2 |
| 20260503214040 | 13 | 289 | 3.2 | 4.8 | 0.00 | 0.00 | 0.00 | 30 | 1016.5 |
| 20260503213539 | 13 | 262 | 1.6 | 6.4 | 0.00 | 0.00 | 0.00 | 29 | 1016.5 |
| 20260503213035 | 13 | 303 | 3.2 | 6.4 | 0.00 | 0.00 | 0.00 | 35 | 1016.3 |
| 20260503212532 | 13 | 303 | 6.4 | 9.7 | 0.00 | 0.00 | 0.00 | 38 | 1016.6 |
| 20260503212030 | 13 | 310 | 4.8 | 14.5 | 0.00 | 0.00 | 0.00 | 32 | 1016.5 |
| 20260503211526 | 13 | 306 | 1.6 | 9.7 | 0.00 | 0.00 | 0.00 | 33 | 1016.7 |
| 20260503211022 | 13 | 334 | 6.4 | 12.9 | 0.00 | 0.00 | 0.00 | 36 | 1016.5 |
| 20260503210519 | 13 | 306 | 3.2 | 6.4 | 0.00 | 0.00 | 0.00 | 33 | 1016.7 |
| 20260503210015 | 14 | 356 | 0.0 | 9.7 | 0.00 | 0.00 | 0.00 | 35 | 1016.8 |
| 20260503205512 | 13 | 307 | 1.6 | 3.2 | 0.00 | 0.00 | 0.00 | 33 | 1016.7 |
| 20260503205008 | 13 | 34 | 8.0 | 9.7 | 0.00 | 0.00 | 0.00 | 34 | 1016.7 |
| 20260503204505 | 13 | 305 | 0.0 | 3.2 | 0.00 | 0.00 | 0.00 | 31 | 1016.7 |
| 20260503204001 | 13 | 301 | 9.7 | 14.5 | 0.00 | 0.00 | 0.00 | 33 | 1016.8 |
| 20260503203459 | 13 | 295 | 4.8 | 17.7 | 0.00 | 0.00 | 0.00 | 35 | 1016.8 |
| 20260503202955 | 13 | 244 | 3.2 | 20.9 | 0.00 | 0.00 | 0.00 | 27 | 1017.1 |
| 20260503202454 | 13 | 293 | 9.7 | 12.9 | 0.00 | 0.00 | 0.00 | 28 | 1016.7 |
| 20260503201952 | 13 | 324 | 1.6 | 14.5 | 0.00 | 0.00 | 0.00 | 29 | 1016.7 |
| 20260503201449 | 13 | 215 | 6.4 | 16.1 | 0.00 | 0.00 | 0.00 | 31 | 1017.1 |
| 20260503200946 | 13 | 313 | 4.8 | 6.4 | 0.00 | 0.00 | 0.00 | 31 | 1017.1 |
| 20260503200443 | 13 | 3 | 8.0 | 16.1 | 0.00 | 0.00 | 0.00 | 33 | 1017.1 |
| 20260503195940 | 13 | 284 | 4.8 | 6.4 | 0.00 | 0.00 | 0.00 | 30 | 1017.2 |
| 20260503195437 | 13 | 251 | 4.8 | 11.3 | 0.00 | 0.00 | 0.00 | 31 | 1017.3 |
| 20260503194933 | 13 | 241 | 6.4 | 9.7 | 0.00 | 0.00 | 0.00 | 31 | 1017.4 |
| 20260503194430 | 13 | 152 | 4.8 | 9.7 | 0.00 | 0.00 | 0.00 | 38 | 1017.4 |
| 20260503193926 | 13 | 187 | 6.4 | 9.7 | 0.00 | 0.00 | 0.00 | 39 | 1017.4 |
| 20260503193421 | 12 | 308 | 0.0 | 22.5 | 0.00 | 0.00 | 0.00 | 37 | 1017.5 |
| 20260503192917 | 12 | 298 | 6.4 | 14.5 | 0.00 | 0.00 | 0.00 | 34 | 1017.6 |
| 20260503192414 | 13 | 277 | 12.9 | 24.1 | 0.00 | 0.00 | 0.00 | 33 | 1017.6 |
| 20260503191909 | 13 | 325 | 6.4 | 9.7 | 0.00 | 0.00 | 0.00 | 34 | 1017.6 |
| 20260503191408 | 12 | 313 | 3.2 | 14.5 | 0.00 | 0.00 | 0.00 | 34 | 1017.8 |
| 20260503190903 | 12 | 278 | 9.7 | 22.5 | 0.00 | 0.00 | 0.00 | 33 | 1017.6 |
| 20260503190401 | 12 | 29 | 4.8 | 6.4 | 0.00 | 0.00 | 0.00 | 35 | 1017.8 |
| 20260503185857 | 12 | 41 | 6.4 | 9.7 | 0.00 | 0.00 | 0.00 | 37 | 1017.7 |
| 20260503185354 | 12 | 20 | 9.7 | 14.5 | 0.00 | 0.00 | 0.00 | 37 | 1018.0 |
| 20260503184854 | 12 | 29 | 8.0 | 14.5 | 0.00 | 0.00 | 0.00 | 38 | 1018.0 |
| 20260503184350 | 12 | 282 | 8.0 | 17.7 | 0.00 | 0.00 | 0.00 | 33 | 1018.3 |
| 20260503183845 | 12 | 270 | 8.0 | 11.3 | 0.00 | 0.00 | 0.00 | 31 | 1018.0 |
| 20260503183343 | 11 | 278 | 1.6 | 4.8 | 0.00 | 0.00 | 0.00 | 40 | 1018.2 |
| 20260503182840 | 12 | 276 | 3.2 | 12.9 | 0.00 | 0.00 | 0.00 | 35 | 1018.2 |
| 20260503182340 | 11 | 317 | 8.0 | 16.1 | 0.00 | 0.00 | 0.00 | 36 | 1018.3 |
| 20260503181836 | 11 | 295 | 1.6 | 9.7 | 0.00 | 0.00 | 0.00 | 41 | 1018.6 |
| 20260503181333 | 11 | 273 | 4.8 | 14.5 | 0.00 | 0.00 | 0.00 | 35 | 1018.7 |
| 20260503180829 | 12 | 17 | 3.2 | 9.7 | 0.00 | 0.00 | 0.00 | 31 | 1018.6 |
| 20260503180328 | 11 | 13 | 6.4 | 12.9 | 0.00 | 0.00 | 0.00 | 36 | 1018.5 |
| 20260503175824 | 11 | 41 | 11.3 | 14.5 | 0.00 | 0.00 | 0.00 | 41 | 1018.7 |
| 20260503175322 | 11 | 74 | 3.2 | 16.1 | 0.00 | 0.00 | 0.00 | 35 | 1018.8 |
| 20260503174817 | 12 | 311 | 8.0 | 11.3 | 0.00 | 0.00 | 0.00 | 35 | 1018.6 |
| 20260503174316 | 11 | 286 | 3.2 | 11.3 | 0.00 | 0.00 | 0.00 | 39 | 1018.8 |
| 20260503173811 | 10 | 129 | 9.7 | 12.9 | 0.00 | 0.00 | 0.00 | 36 | 1018.7 |
| 20260503173307 | 11 | 292 | 11.3 | 17.7 | 0.00 | 0.00 | 0.00 | 36 | 1018.6 |
| 20260503172804 | 11 | 217 | 1.6 | 6.4 | 0.00 | 0.00 | 0.00 | 34 | 1018.9 |
| 20260503172302 | 10 | 37 | 1.6 | 11.3 | 0.00 | 0.00 | 0.00 | 38 | 1019.0 |
| 20260503171758 | 10 | 175 | 3.2 | 9.7 | 0.00 | 0.00 | 0.00 | 38 | 1018.9 |
| 20260503171255 | 10 | 167 | 9.7 | 14.5 | 0.00 | 0.00 | 0.00 | 39 | 1018.8 |
| 20260503170752 | 11 | 263 | 9.7 | 14.5 | 0.00 | 0.00 | 0.00 | 41 | 1018.9 |
| 20260503170248 | 10 | 1 | 1.6 | 11.3 | 0.00 | 0.00 | 0.00 | 36 | 1019.1 |
| 20260503160210 | 9 | 80 | 4.8 | 6.4 | 0.00 | 0.00 | 0.00 | 43 | 1019.3 |
| 20260503150641 | 8 | 358 | 0.0 | 11.3 | 0.00 | 0.00 | 0.00 | 50 | 1019.8 |
| 20260503150136 | 8 | 302 | 9.7 | 14.5 | 0.00 | 0.00 | 0.00 | 54 | 1019.9 |
| 20260503131030 | 5 | 80 | 4.8 | 6.4 | 0.00 | 0.00 | 0.00 | 54 | 1019.6 |
| 20260503130527 | 5 | 59 | 3.2 | 17.7 | 0.00 | 0.00 | 0.00 | 55 | 1019.4 |
| 20260503110418 | -1 | 303 | 1.6 | 1.6 | 0.00 | 0.00 | 0.00 | 86 | 1018.3 |
| 20260503090309 | 0 | 247 | 1.6 | 3.2 | 0.00 | 0.00 | 0.00 | 84 | 1017.1 |
| 20260503081242 | 0 | 268 | 0.0 | 0.0 | 0.00 | 0.00 | 0.00 | 83 | 1016.8 |
| 20260503080737 | 0 | 16 | 6.4 | 14.5 | 0.00 | 0.00 | 0.00 | 77 | 1016.8 |
| 20260503080236 | 0 | 273 | 1.6 | 3.2 | 0.00 | 0.00 | 0.00 | 82 | 1016.8 |
| 20260503072712 | 1 | 303 | 1.6 | 3.2 | 0.00 | 0.00 | 0.00 | 77 | 1016.6 |
| 20260503072209 | 2 | 281 | 0.0 | 3.2 | 0.00 | 0.00 | 0.00 | 75 | 1016.5 |
| 20260503071705 | 1 | 276 | 4.8 | 6.4 | 0.00 | 0.00 | 0.00 | 70 | 1016.6 |
| 20260503071202 | 1 | 241 | 3.2 | 4.8 | 0.00 | 0.00 | 0.00 | 77 | 1016.3 |
| 20260503070659 | 1 | 262 | 4.8 | 4.8 | 0.00 | 0.00 | 0.00 | 75 | 1016.3 |
| 20260503070157 | 1 | 272 | 3.2 | 3.2 | 0.00 | 0.00 | 0.00 | 76 | 1016.2 |
| 20260503060121 | 2 | 319 | 0.0 | 1.6 | 0.00 | 0.00 | 0.00 | 81 | 1016.5 |
| 20260503055113 | 2 | 255 | 3.2 | 3.2 | 0.00 | 0.00 | 0.00 | 77 | 1016.2 |
| 20260503054608 | 2 | 256 | 1.6 | 1.6 | 0.00 | 0.00 | 0.00 | 78 | 1016.2 |
| 20260503054106 | 2 | 248 | 0.0 | 1.6 | 0.00 | 0.00 | 0.00 | 74 | 1016.1 |
| 20260503053604 | 2 | 251 | 3.2 | 3.2 | 0.00 | 0.00 | 0.00 | 74 | 1016.3 |
| 20260503053102 | 2 | 266 | 0.0 | 3.2 | 0.00 | 0.00 | 0.00 | 73 | 1016.0 |
| 20260503052558 | 2 | 268 | 1.6 | 3.2 | 0.00 | 0.00 | 0.00 | 75 | 1016.2 |
| 20260503052054 | 2 | 246 | 3.2 | 3.2 | 0.00 | 0.00 | 0.00 | 73 | 1016.1 |
| 20260503051550 | 2 | 256 | 3.2 | 3.2 | 0.00 | 0.00 | 0.00 | 75 | 1016.1 |
| 20260503051048 | 2 | 272 | 3.2 | 3.2 | 0.00 | 0.00 | 0.00 | 73 | 1016.3 |
| 20260503050543 | 2 | 359 | 1.6 | 4.8 | 0.00 | 0.00 | 0.00 | 68 | 1016.2 |
| 20260503050041 | 3 | 249 | 1.6 | 1.6 | 0.00 | 0.00 | 0.00 | 67 | 1016.0 |
| 20260503045538 | 3 | 18 | 4.8 | 6.4 | 0.00 | 0.00 | 0.00 | 68 | 1016.2 |
| 20260503045035 | 3 | 295 | 3.2 | 4.8 | 0.00 | 0.00 | 0.00 | 67 | 1015.9 |
| 20260503044532 | 3 | 275 | 3.2 | 4.8 | 0.00 | 0.00 | 0.00 | 72 | 1016.0 |
| 20260503044030 | 3 | 245 | 3.2 | 4.8 | 0.00 | 0.00 | 0.00 | 71 | 1016.1 |
| 20260503043525 | 3 | 277 | 3.2 | 4.8 | 0.00 | 0.00 | 0.00 | 67 | 1016.3 |
| 20260503043022 | 3 | 279 | 3.2 | 3.2 | 0.00 | 0.00 | 0.00 | 69 | 1016.0 |
| 20260503042519 | 3 | 244 | 3.2 | 4.8 | 0.00 | 0.00 | 0.00 | 71 | 1015.9 |
| 20260503042015 | 4 | 273 | 3.2 | 3.2 | 0.00 | 0.00 | 0.00 | 69 | 1016.0 |
| 20260503041512 | 3 | 262 | 4.8 | 6.4 | 0.00 | 0.00 | 0.00 | 68 | 1016.0 |
| 20260503041010 | 4 | 311 | 1.6 | 4.8 | 0.00 | 0.00 | 0.00 | 63 | 1015.9 |
| 20260503040507 | 3 | 256 | 4.8 | 6.4 | 0.00 | 0.00 | 0.00 | 72 | 1016.1 |
| 20260503040004 | 3 | 264 | 3.2 | 3.2 | 0.00 | 0.00 | 0.00 | 69 | 1016.0 |
| 20260503035501 | 3 | 285 | 1.6 | 1.6 | 0.00 | 0.00 | 0.00 | 66 | 1016.0 |
| 20260503034959 | 4 | 279 | 1.6 | 3.2 | 0.00 | 0.00 | 0.00 | 69 | 1016.0 |
| 20260503034456 | 3 | 257 | 1.6 | 4.8 | 0.00 | 0.00 | 0.00 | 68 | 1016.1 |
| 20260503033953 | 3 | 272 | 4.8 | 4.8 | 0.00 | 0.00 | 0.00 | 72 | 1016.0 |